Regional Weather Roundup
Issued by NWS

Home | Current Version | Previous Version | Graphics & Text | Print | Product List | Glossary On
Versions: 1 2 3 4 5 6 7 8 9 10 11 12 13 14 15 16 17 18 19 20 21 22 23 24 25 26 27 28 29 30 31 32 33 34 35 36 37 38 39 40 41 42 43 44 45 46 47 48 49 50
405
ASUS43 KLMK 030610
RWRKY
KENTUCKY REGIONAL WEATHER ROUNDUP
NATIONAL WEATHER SERVICE LOUISVILLE KY
100 AM EST SAT DEC 03 2016

NOTE "FAIR" INDICATES FEW OR NO CLOUDS BELOW 12,000 FEET
WITH NO SIGNIFICANT WEATHER AND/OR OBSTRUCTIONS TO VISIBILITY.

KYZ001>023-026-027-061>063-070>075-030700-
WESTERN AND SOUTH CENTRAL KENTUCKY

CITY           SKY/WX    TMP DP  RH WIND       PRES   REMARKS
PADUCAH        CLOUDY    35  29  78 NE3       30.35S
HENDERSON      CLEAR     28  25  86 CALM      30.36R
OWENSBORO      CLEAR     30  27  88 CALM      30.36S
HOPKINSVILLE   CLEAR     38  31  76 CALM      30.34R
BOWLING GREEN  CLEAR     35  30  82 CALM      30.36R
GLASGOW        CLEAR     32  29  90 CALM      30.34S
$$

KYZ024-025-028>034-038-045-046-053-030700-
NORTH CENTRAL KENTUCKY

CITY           SKY/WX    TMP DP  RH WIND       PRES   REMARKS
LOUISVILLE/SDF CLOUDY    42  27  55 NW7       30.33F
LOUISVILLE/LOU CLOUDY    42  30  62 NW5       30.34F
FORT KNOX      CLOUDY    39  31  73 NW5       30.31F
$$

KYZ035>037-039>044-047>052-055>060-089>105-030700-
NORTHEAST KENTUCKY

CITY           SKY/WX    TMP DP  RH WIND       PRES   REMARKS
LEXINGTON      CLOUDY    40  29  64 CALM      30.32S
COVINGTON      CLOUDY    37  34  89 NW7       30.31S WCI  32
FRANKFORT      CLOUDY    40  31  70 CALM      30.32S
$$

KYZ054-064>069-076>088-106>120-030700-
SOUTHEAST KENTUCKY

CITY           SKY/WX    TMP DP  RH WIND       PRES   REMARKS
JACKSON        CLOUDY    36  29  75 CALM      30.31R
LONDON         PTCLDY    31  26  82 CALM      30.32R
SOMERSET       CLOUDY    30  28  93 CALM      30.35S
MIDDLESBORO    CLEAR     30  29  94 CALM      30.32S
MONTICELLO     CLEAR     26  24  92 VRB6      30.35S WCI  19
$$





USA.gov is the U.S. government's official web portal to all federal, state and local government web resources and services.